Location: Most
(50.5133°N, 13.6207°E)
Time: 19:24:30
(UTC+02:00)

ISS - Pass Details

Date: 19 May 2019
Orbit: 407 x 410 km, 51.6° (Epoch: 23 May)

Event Time Altitude Azimuth Distance (km) Brightness Sun altitude
Rises 00:28:03 0° 265° (W) 2,333 0.1 -19.4°
Reaches altitude 10° 00:30:09 10° 267° (W) 1,474 -0.9 -19.5°
Maximum altitude 00:33:26 74° 352° (N) 430 -3.7 -19.6°
Drops below altitude 10° 00:36:45 10° 79° (E) 1,477 -0.9 -19.6°
Sets 00:38:51 0° 82° (E) 2,340 0.1 -19.7°
